Regional Weather Roundup
Issued by NWS

Home | Current Version | Previous Version | Graphics & Text | Print | Product List | Glossary On
Versions: 1 2 3 4 5 6 7 8 9 10 11 12 13 14 15 16 17 18 19 20 21 22 23 24 25 26 27 28 29 30 31 32 33 34 35 36 37 38 39 40 41 42 43 44 45 46 47 48 49 50
000
ASUS45 KABQ 031210
RWRNM
NEW MEXICO REGIONAL WEATHER ROUNDUP
NATIONAL WEATHER SERVICE ALBUQUERQUE NM
600 AM MDT THU SEP 03 2015

NOTE: "FAIR" MEANS FEW OR NO CLOUDS BELOW 12,000 FEET AGL WITH NO
       SIGNIFICANT WEATHER OR OBSTRUCTIONS TO VISION.

      THIS PRODUCT IS RELEASED AS TWO VERSIONS.  ONE VERSION NEAR
      THE TOP OF THE HOUR CONTAINING PRELIMINARY DATA FROM ALBUQUERQUE
      AND OTHER STATIONS.  A FINAL VERSION WITH ADDITIONAL DATA IS
      ISSUED ABOUT 10 MINUTES AFTER THE HOUR.

NMZ501-503-504-510>518-031300-
NORTHWEST PLATEAU/NORTHCENTRAL MOUNTAINS

CITY           SKY/WX    TMP DP  RH WIND       PRES   REMARKS
FARMINGTON     CLOUDY    64  50  60 CALM      30.15R
6HR MIN TEMP:  63; 6HR MAX TEMP:  67; 6HR PCP: TRACE;

LOS ALAMOS     MOCLDY    61  45  55 W3        30.26S
SANTA FE       PTCLDY    56  46  69 CALM      30.20S
6HR MIN TEMP:  56; 6HR MAX TEMP:  65;

TAOS           MOCLDY    52  37  58 CALM      30.27S
ANGEL FIRE     FAIR      44  42  93 CALM      30.33R

$$
NMZ402-403-502-505>509-031300-
WESTCENTRAL MOUNTAINS/SOUTHWEST MOUNTAINS

CITY           SKY/WX    TMP DP  RH WIND       PRES   REMARKS
GALLUP         PTCLDY    54  47  77 S3        30.23S
6HR MIN TEMP:  54; 6HR MAX TEMP:  62;

GRANTS         PTCLDY    50  49  98 CALM      30.26R
SILVER CITY      N/A     61  55  82 N7        30.18F

$$
NMZ407-409-411-412-031300-
SOUTHERN DESERTS

CITY           SKY/WX    TMP DP  RH WIND       PRES   REMARKS
LORDSBURG      FAIR      63  61  94 CALM      30.10S
DEMING         CLOUDY    68  57  68 NW5       30.09F
6HR MIN TEMP:  67; 6HR MAX TEMP:  74; 6HR PCP: TRACE;

LAS CRUCES     CLOUDY    69  54  58 N6        30.11F
HOLLOMAN AFB   MOCLDY    70  53  55 NW7       30.07R
ALAMOGORDO     MOCLDY    72  50  46 NW7       30.09R
T OR C         CLOUDY    66  57  72 W6        30.13S
6HR MIN TEMP:  65; 6HR MAX TEMP:  67;


$$
NMZ519>523-031300-
CENTRAL VALLEYS/CENTRAL HIGHLANDS

CITY           SKY/WX    TMP DP  RH WIND       PRES   REMARKS
ALBUQUERQUE    CLOUDY    65  48  54 SE6       30.16R
6HR MIN TEMP:  65; 6HR MAX TEMP:  72;

DOUBLE EAGLE   CLEAR     54  48  82 CALM      30.18F
MORIARTY ARPT  FAIR      53  46  77 CALM      30.21R
6HR MIN TEMP:  53; 6HR MAX TEMP:  64;

CLINES CORNERS PTCLDY    55  46  71 NW10      30.22S
6HR MIN TEMP:  54; 6HR MAX TEMP:  63;

BELEN          FAIR      61  55  81 CALM      30.15S
6HR MIN TEMP:  61; 6HR MAX TEMP:  68;

SOCORRO        FAIR      65  55  71 SE5       30.13S
6HR MIN TEMP:  65; 6HR MAX TEMP:  69;


$$
NMZ524>526-539-540-031300-
SOUTHCENTRAL MOUNTAINS

CITY           SKY/WX    TMP DP  RH WIND       PRES   REMARKS
RUIDOSO        MOCLDY    59  46  63 W5        30.26S

$$
NMZ527>531-031300-
NORTHEAST HIGHLANDS/NORTHEAST PLAINS

CITY           SKY/WX    TMP DP  RH WIND       PRES   REMARKS
LAS VEGAS      CLEAR     55  45  68 CALM      30.19F
6HR MIN TEMP:  53; 6HR MAX TEMP:  62; 6HR PCP: TRACE;

RATON          PTCLDY    53  50  89 NE7       30.13F
6HR MIN TEMP:  52; 6HR MAX TEMP:  61;

CLAYTON        PTCLDY    65  52  62 W10       30.02S
6HR MIN TEMP:  62; 6HR MAX TEMP:  71;


$$
NMZ532>537-031300-
EASTCENTRAL PLAINS

CITY           SKY/WX    TMP DP  RH WIND       PRES   REMARKS
TUCUMCARI      CLEAR     67  50  54 SW10      30.01S
6HR MIN TEMP:  67; 6HR MAX TEMP:  77;

CANNON AFB     CLEAR     68  53  59 W10       30.07R
6HR MIN TEMP:  65; 6HR MAX TEMP:  73;

CLOVIS AIRPORT CLEAR     64  52  63 SW9       30.08R

$$
NMZ028-029-538-031300-
SOUTHEAST PLAINS

CITY           SKY/WX    TMP DP  RH WIND       PRES   REMARKS
ROSWELL        PTCLDY    70  54  56 NW5       30.02S
6HR MIN TEMP:  70; 6HR MAX TEMP:  80;

ARTESIA        MOCLDY    70  52  52 W7        30.03R
CARLSBAD       PTCLDY    70  51  51 CALM      30.00R
6HR MIN TEMP:  70; 6HR MAX TEMP:  80;

HOBBS          CLEAR     61  54  77 CALM      30.06R


$$


USA.gov is the U.S. government's official web portal to all federal, state and local government web resources and services.